Home   Weather   Chelyabinsk   Past weeks

Flag for Russia Past Weather in Chelyabinsk, Russia — Yesterday and Last 2 Weeks

Now
14 °F

Low level haze.


Feels Like: -3 °F
Forecast: 2 / 10 °F
Wind: 17 mph from Southwest

Location: Chelyabinsk-Balandino

Current Time: Jan 21, 2017 at 5:29:53 am

Latest Report: Jan 21, 2017 at 4:30 am


Visibility: N/A

Pressure: 29.30 "Hg

Humidity: 73%

Dew Point: 7 °F

Location of ChelyabinskLocation

Past Weather in Chelyabinsk — Graph

°F

Chelyabinsk Temperature Yesterday

Maximum temperature yesterday: 19 °F (at 9:00 pm)
Minimum temperature yesterday: -17 °F (at 7:00 am)
Average temperature yesterday: 3 °F

High & Low Weather Summary for the Past Weeks

 TemperatureHumidityPressure
High27 °F (Jan 7, 2:00 am)93% (Jan 6, 8:30 pm)30.63 "Hg (Jan 6, 8:30 pm)
Low-26 °F (Jan 9, 9:00 am)62% (Jan 21, 2:30 am)29.30 "Hg (Jan 21, 3:00 am)
Average5 °F81%30.22 "Hg
* Reported Jan 6 4:00 am — Jan 21 4:00 am, Chelyabinsk, Weather by CustomWeather, © 2017

Note: Actual official high and low records may vary slightly from our data, if they occured in-between our weather recording intervals... More about our weather records

Advertising

Chelyabinsk Weather History for the Previous 24 Hours

Scroll right to see more
 ConditionsComfort  
Time TempWeatherWind HumidityBarometerVisibility
4:00 am
Sat, Jan 21
16 °FPassing clouds.17 mph67%29.30 "HgN/A
3:30 am16 °FPassing clouds.17 mph62%29.30 "HgN/A
3:00 am16 °FPassing clouds.10 mph67%29.30 "HgN/A
2:30 am18 °FPassing clouds.17 mph62%29.33 "HgN/A
2:00 am18 °FPassing clouds.15 mph68%29.33 "Hg4 mi
1:30 am18 °FPassing clouds.10 mph73%29.33 "Hg4 mi
1:00 am18 °FPassing clouds.10 mph79%29.33 "Hg4 mi
12:30 am18 °FSnow flurries. Passing clouds.10 mph79%29.33 "Hg2 mi
12:00 am18 °FSnow flurries. Passing clouds.13 mph86%29.36 "Hg2 mi
11:30 pm
Fri, Jan 20
19 °FSnow flurries. Passing clouds.15 mph73%29.36 "Hg2 mi
11:00 pm19 °FSnow flurries. Passing clouds.13 mph73%29.36 "Hg2 mi
10:30 pm19 °FSnow flurries. Passing clouds.13 mph73%29.39 "Hg4 mi
10:00 pm19 °FSnow flurries. Passing clouds.13 mph73%29.39 "Hg3 mi
9:30 pm19 °FSnow flurries. Passing clouds.13 mph79%29.39 "Hg3 mi
9:00 pm19 °FSnow flurries. Passing clouds.13 mph73%29.42 "Hg2 mi
8:30 pm18 °FPassing clouds.10 mph79%29.42 "HgN/A
8:00 pm16 °FPassing clouds.13 mph86%29.45 "HgN/A
7:30 pm16 °FPassing clouds.15 mph79%29.45 "HgN/A
7:00 pm16 °FLight snow. Passing clouds.15 mph79%29.47 "Hg3 mi
6:30 pm16 °FLight snow. Passing clouds.13 mph79%29.47 "Hg2 mi
6:00 pm16 °FLight snow. Partly sunny.13 mph79%29.50 "Hg2 mi
5:30 pm18 °FPassing clouds.15 mph73%29.50 "HgN/A
5:00 pm18 °FPassing clouds.15 mph73%29.53 "HgN/A
4:30 pm16 °FPassing clouds.13 mph73%29.53 "HgN/A
4:00 pm18 °FClear.15 mph68%29.56 "Hg4 mi
3:30 pm16 °FClear.13 mph73%29.56 "Hg4 mi
3:00 pm14 °FClear.10 mph73%29.59 "Hg3 mi
2:30 pm12 °FClear.10 mph73%29.62 "Hg3 mi
2:00 pm10 °FIce fog.10 mph79%29.62 "Hg3 mi
1:30 pm9 °FIce fog.10 mph78%29.65 "Hg3 mi
1:00 pm7 °FIce fog.10 mph85%29.68 "Hg3 mi
12:30 pm7 °FIce fog.8 mph85%29.68 "Hg2 mi
12:00 pm5 °FIce fog.8 mph85%29.71 "Hg3 mi
11:30 am5 °FIce fog.6 mph85%29.74 "Hg2 mi
11:00 am-2 °FIce fog.3 mph84%29.74 "Hg1 mi
10:30 am-8 °FIce fog.3 mph77%29.77 "Hg1 mi
10:00 am-9 °FIce fog.3 mph84%29.77 "Hg1 mi
9:30 am-15 °FIce fog.1 mph83%29.80 "Hg1 mi
9:00 am-9 °FIce fog.1 mph77%29.80 "Hg1 mi
8:30 am-13 °FIce fog.1 mph76%29.80 "Hg1 mi
8:00 am-15 °FExtremely cold.3 mph76%29.83 "Hg1 mi
7:30 am-17 °FLight snow. Ice fog.No wind76%29.83 "Hg1 mi
7:00 am-17 °FLight snow. Ice fog.1 mph76%29.86 "Hg1 mi
6:30 am-13 °FSnow flurries. Ice fog.3 mph76%29.86 "Hg1 mi
6:00 am-13 °FSnow flurries. Ice fog.1 mph83%29.89 "Hg1 mi
5:30 am-15 °FSnow flurries. Ice fog.No wind76%29.89 "Hg2 mi
5:00 am-4 °FSnow flurries. Ice fog.3 mph77%29.92 "Hg1 mi
Weather by CustomWeather, © 2017

See weather overviewHow to use our weather pages